Location: Freistadt
(48.5112°N, 14.5013°E)
Time: 10:06:41
(UTC+02:00)

MOZHAYETS 4 - Pass Details

Date: 03 April 2023
Orbit: 657 x 675 km, 98.2° (Epoch: 03 June)

Event Time Altitude Azimuth Distance (km) Brightness Sun altitude
Exits shadow 04:17:16 32° 300° (WNW) 1,141 8.7 -22.0°
Drops below altitude 10° 04:20:14 10° 332° (NNW) 2,090 10.3 -21.6°
Sets 04:22:36 0° 340° (NNW) 3,010 11.3 -21.3°
